Weather History for Salt Lake City, UT

Change the Weather History Date:

Tuesday, January 1, 2013

  Actual Average Record
Temperature  
Mean Temperature 19 °F 29 °F  
Max Temperature 27 °F 37 °F 58 °F (1997)
Min Temperature 11 °F 22 °F -4 °F (1974)
Degree Days  
Heating Degree Days 46 36  
Month to date heating degree days 46 36  
Since 1 July heating degree days 1861 2330  
Cooling Degree Days 0 0  
Month to date cooling degree days 0 0  
Year to date cooling degree days 0 0  
Moisture  
Dew Point 14 °F    
Average Humidity 77    
Maximum Humidity 92    
Minimum Humidity 62    
Precipitation  
Precipitation T in 0.04 in 0.43 in (1879)
Month to date precipitation T 0.04  
Year to date precipitation T 0.04  
Snow  
Snow T in 0.50 in 4.60 in (1937)
Month to date snowfall T 0.5  
Since 1 July snowfall 28.6 22.7  
Snow Depth 3.00 in    
Sea Level Pressure  
Sea Level Pressure 30.45 in    
Wind  
Wind Speed 4 mph (SSE)    
Max Wind Speed 10 mph    
Max Gust Speed 12 mph    
Visibility 7 miles    
Events Snow    
T = Trace of Precipitation, MM = Missing Value Source: NWS Daily Summary

Daily Weather History Graph

Daily Weather History Graph

Search for Another Location

Airport:

Trip Planner

Search our weather history database for the weather conditions in past years. The results will help you decide how hot, cold, wet, or windy it might be!

Date:

Astronomy

Jan. 01, 2013 Rise Set
Actual Time 7:52 AM MST 5:11 PM MST
Civil Twilight 7:21 AM MST 5:42 PM MST
Nautical Twilight 6:46 AM MST 6:16 PM MST
Astronomical Twilight 6:13 AM MST 6:49 PM MST
Moon 9:47 PM MST (1/1) 10:04 AM MST (1/1)
Length of Visible Light 10h 20m
Length of Day
9h 19m
Waning Gibbous, 83% of the Moon is Illuminated
Jan 1
Waning Gibbous
Jan 4
Last Quarter
Jan 11
New
Jan 18
First Quarter
Jan 26
Full

Hourly Weather History & Observations

Time (MST) Temp. Windchill Dew Point Humidity Pressure Visibility Wind Dir Wind Speed Gust Speed Precip Events Conditions
12:39 AM 18.0 °F 8.7 °F 12.0 °F 78% 30.29 in 7.0 mi SE 6.9 mph - N/A   Overcast
12:53 AM 18.0 °F 8.7 °F 12.0 °F 78% 30.40 in 8.0 mi SE 6.9 mph - N/A   Overcast
1:53 AM 19.0 °F 12.3 °F 14.0 °F 81% 30.40 in 6.0 mi South 4.6 mph - N/A   Haze
2:53 AM 19.0 °F 12.3 °F 12.0 °F 74% 30.42 in 7.0 mi SE 4.6 mph - N/A   Overcast
3:00 AM 19.0 °F 12.3 °F 12.9 °F 77% 30.32 in 7.0 mi SE 4.6 mph - N/A   Overcast
3:53 AM 19.4 °F 11.5 °F 14.0 °F 80% 30.32 in 6.0 mi SSE 5.8 mph - N/A   Overcast
4:53 AM 19.0 °F - 12.9 °F 77% 30.44 in 8.0 mi Calm Calm - N/A   Overcast
5:53 AM 19.0 °F 13.9 °F 12.9 °F 77% 30.45 in 8.0 mi ESE 3.5 mph - N/A   Overcast
6:00 AM 19.0 °F 13.9 °F 14.0 °F 81% 30.33 in 8.0 mi ESE 3.5 mph - N/A   Overcast
6:53 AM 19.4 °F - 14.0 °F 80% 30.34 in 6.0 mi Calm Calm - N/A   Haze
7:53 AM 19.9 °F 14.9 °F 14.0 °F 78% 30.48 in 8.0 mi North 3.5 mph - N/A   Mostly Cloudy
8:00 AM 19.9 °F - 12.9 °F 74% 30.36 in 8.0 mi Calm Calm - N/A   Mostly Cloudy
8:53 AM 19.9 °F - 14.0 °F 78% 30.48 in 8.0 mi Calm Calm - N/A   Mostly Cloudy
9:53 AM 21.0 °F 12.4 °F 15.1 °F 78% 30.51 in 8.0 mi South 6.9 mph - N/A   Mostly Cloudy
10:53 AM 21.0 °F 14.6 °F 15.1 °F 78% 30.53 in 9.0 mi SSE 4.6 mph - N/A   Mostly Cloudy
11:53 AM 23.0 °F 15.8 °F 14.0 °F 68% 30.51 in 9.0 mi SSE 5.8 mph - N/A   Scattered Clouds
12:53 PM 25.0 °F - 14.0 °F 63% 30.48 in 9.0 mi Calm Calm - N/A   Scattered Clouds
1:53 PM 25.0 °F 17.1 °F 15.1 °F 66% 30.49 in 9.0 mi North 6.9 mph - N/A   Scattered Clouds
2:53 PM 24.1 °F 19.7 °F 17.1 °F 75% 30.48 in 9.0 mi West 3.5 mph - N/A   Scattered Clouds
3:53 PM 23.0 °F 17.0 °F 15.1 °F 72% 30.49 in 9.0 mi WSW 4.6 mph - N/A   Scattered Clouds
4:53 PM 21.0 °F 14.6 °F 15.1 °F 78% 30.48 in 9.0 mi West 4.6 mph - N/A   Scattered Clouds
5:53 PM 19.9 °F 14.9 °F 15.1 °F 81% 30.47 in 9.0 mi West 3.5 mph - N/A   Mostly Cloudy
6:12 PM 19.0 °F - 14.0 °F 81% 30.37 in 9.0 mi Calm Calm - N/A   Mostly Cloudy
6:53 PM 19.0 °F 12.3 °F 16.0 °F 88% 30.51 in 6.0 mi North 4.6 mph - N/A   Overcast
7:53 PM 19.9 °F 12.1 °F 16.0 °F 85% 30.52 in 5.0 mi NNW 5.8 mph - 0.00 in Snow Light Snow
8:53 PM 19.0 °F 13.9 °F 15.1 °F 85% 30.53 in 5.0 mi North 3.5 mph - 0.00 in   Overcast
9:53 PM 18.0 °F - 14.0 °F 84% 30.53 in 5.0 mi Calm Calm - 0.00 in   Light Freezing Drizzle
9:58 PM 16.0 °F - 12.9 °F 88% 30.41 in 5.0 mi Calm Calm - 0.00 in   Light Freezing Drizzle
10:13 PM 17.1 °F - 12.9 °F 84% 30.41 in 4.0 mi Calm Calm - 0.00 in   Scattered Clouds
10:49 PM 17.6 °F - 14.0 °F 86% 30.42 in 4.0 mi Calm Calm - 0.00 in   Mostly Cloudy
10:53 PM 16.0 °F - 14.0 °F 92% 30.55 in 5.0 mi Calm Calm - 0.00 in   Mostly Cloudy
11:53 PM 15.1 °F 9.4 °F 10.9 °F 84% 30.55 in 5.0 mi South 3.5 mph - N/A   Mostly Cloudy